Hourly Data Report for November 21, 2004

TORONTO CITY
ONTARIO

43°40'00.000" N
79°24'00.000" W
112.50 m
6158355
71508
XTO

Download Data

Hourly Data (November 2004)
Hourly Data Report for November 21, 2004
TIME
LST
Temp Definition
°C
Dew Point Definition
°C
Rel Hum Definition
%
Precip. Amount Definition
mm

Wind Dir Definition
10's deg

Wind Spd Definition
km/h
Visibility Definition
km
Stn Press Definition
kPa
Hmdx Definition


Wind Chill Definition


Weather Definition


00:00 8.6 8.5 99   LegendMM LegendMM LegendMM 100.34     LegendNANA
01:00 7.9 7.8 99   LegendMM LegendMM LegendMM 100.35     LegendNANA
02:00 8.0 8.0 100   LegendMM LegendMM LegendMM 100.38     LegendNANA
03:00 10.2 10.0 99   LegendMM LegendMM LegendMM 100.49     LegendNANA
04:00 10.5 8.2 86   LegendMM LegendMM LegendMM 100.53     LegendNANA
05:00 9.5 7.6 88   LegendMM LegendMM LegendMM 100.58     LegendNANA
06:00 9.1 7.3 88   LegendMM LegendMM LegendMM 100.64     LegendNANA
07:00 9.2 7.4 88   LegendMM LegendMM LegendMM 100.76     LegendNANA
08:00 9.2 7.3 88   LegendMM LegendMM LegendMM 100.86     LegendNANA
09:00 9.4 6.8 84   LegendMM LegendMM LegendMM 100.91     LegendNANA
10:00 9.7 6.3 79   LegendMM LegendMM LegendMM 100.95     LegendNANA
11:00 10.4 5.4 71   LegendMM LegendMM LegendMM 100.97     LegendNANA
12:00 9.9 4.1 67   LegendMM LegendMM LegendMM 100.98     LegendNANA
13:00 10.7 2.8 58   LegendMM LegendMM LegendMM 100.92     LegendNANA
14:00 9.9 1.9 57   LegendMM LegendMM LegendMM 100.90     LegendNANA
15:00 10.1 1.9 57   LegendMM LegendMM LegendMM 100.89     LegendNANA
16:00 9.4 2.0 60   LegendMM LegendMM LegendMM 100.94     LegendNANA
17:00 8.6 1.5 61   LegendMM LegendMM LegendMM 100.96     LegendNANA
18:00 7.7 1.4 64   LegendMM LegendMM LegendMM 100.98     LegendNANA
19:00 6.7 0.8 66   LegendMM LegendMM LegendMM 100.96     LegendNANA
20:00 6.4 0.7 67   LegendMM LegendMM LegendMM 100.96     LegendNANA
21:00 5.9 0.6 69   LegendMM LegendMM LegendMM 100.94     LegendNANA
22:00 5.9 0.7 69   LegendMM LegendMM LegendMM 100.94     LegendNANA
23:00 5.7 0.7 70   LegendMM LegendMM LegendMM 100.88     LegendNANA

Notes on Data Quality.

Legend

  • E = Estimated
  • M = Missing
  • NA = Not Available*
  • [empty] = Indicates an unobserved value
Date modified: